[[{"header":{"parameterUnit":"m.s-1","parameterCategory":1,"la1":30.2991,"la2":30.254,"lo1":-89.0895,"lo2":-89.0444,"dy":0.0017,"dx":0.0017,"nx":28,"ny":28,"refTime":"2024-08-17T21:00:00:Z","depth":0,"parameterNumber":2,"parameterNumberName":"U-component_of_WINDS"},"data":[0,0,0,0,0,0,0,0,0,0,0,0,0,0,0,0,0,0,0,0,0,0,0,0,0,0,0,0,0,0,0,0,0,0,0,0,0,0,0,0,0,0,0,0,0,0,0,0,0,0,0,0,0,0,0,0,0,0,4.634,4.6342,0,4.6524,4.6526,4.6528,4.6495,4.6491,4.6488,4.6485,4.6674,4.6682,4.669,0,0,0,0,0,0,0,0,0,0,0,0,0,4.5958,4.5965,4.634,4.6342,4.6344,4.6524,4.6526,4.6529,4.6495,4.6491,4.6487,4.6484,4.6672,4.6681,4.6691,0,0,0,0,0,0,0,0,0,0,0,0,0,4.6131,4.5967,4.6339,4.6349,4.6352,4.6523,4.6526,4.6529,4.6496,4.6491,4.6486,4.6482,4.6669,4.668,4.6692,4.6866,0,0,4.673,4.6735,0,0,0,0,0,0,0,0,4.6121,4.6145,4.6345,4.6349,4.6352,4.6481,4.6461,4.6642,4.6497,4.6441,4.6485,4.6479,4.6614,4.6631,4.6676,4.6875,4.6883,4.6731,4.6738,4.6743,4.6747,0,0,0,0,0,0,0,4.6109,4.6137,4.6413,4.6348,4.6353,4.6344,4.6363,4.6495,4.6553,4.6446,4.6444,4.6466,4.6615,4.6664,4.668,4.6886,4.673,4.6741,4.6749,4.6753,4.7232,4.7238,0,0,0,0,0,0,4.6094,4.6127,4.6407,4.6418,4.6222,4.6355,4.6376,4.6445,4.6552,4.6563,4.647,4.6464,4.6646,4.6666,4.6687,4.6894,4.6743,4.6754,4.6761,4.7227,4.7234,4.724,0,0,0,0,0,0,4.6086,4.6119,4.6399,4.6272,4.6307,4.6367,4.6444,4.6451,4.65,4.657,4.658,4.651,4.6643,4.667,4.6821,4.69,4.676,4.6771,4.7221,4.7229,4.7237,4.7312,0,0,0,0,0,0,4.6075,4.6117,4.6184,4.6274,4.6314,4.6531,4.6449,4.6458,4.6521,4.6515,4.661,4.6621,4.6641,4.6803,4.6833,4.6915,4.678,4.7214,4.7224,4.7234,4.7303,4.7322,4.7339,0,0,0,0,0,4.6062,4.6199,4.6187,4.6221,4.6399,4.6536,4.6559,4.6579,4.6528,4.6595,4.6639,4.6618,4.6887,4.6819,4.6852,4.6939,4.7209,4.7221,4.7233,4.7295,4.7318,4.7338,0,0,0,0,0,0,4.6117,4.6211,4.6199,4.6369,4.6445,4.653,4.6615,4.6603,4.6695,4.6685,4.6707,4.6729,4.6881,4.6926,4.6847,4.7111,4.7041,4.706,4.7076,4.7099,4.7116,4.7102,4.6791,0,0,0,0,0,4.6149,4.6252,4.6328,4.6471,4.6509,4.6556,4.6616,4.6625,4.6704,4.6736,4.6792,4.6869,4.6971,4.7038,4.7135,4.7309,4.7328,4.7385,4.7403,4.7417,4.7434,4.7526,4.7552,4.728,4.728,4.7279,0,0,4.6216,4.628,4.6344,4.6484,4.6543,4.6649,4.6583,4.6698,4.6777,4.6754,4.6899,4.6942,4.703,4.7193,4.7267,4.7234,4.7513,4.7433,4.7444,4.7452,4.7541,4.7567,4.759,4.7288,4.7287,4.7285,0,0,4.6392,4.6451,4.6575,4.6636,4.6726,4.6756,4.6785,4.6872,4.69,4.7046,4.703,4.7123,4.7299,4.7361,4.7416,4.7613,4.7596,4.7644,4.7737,4.7826,4.7848,4.7867,4.7935,4.7959,4.766,4.7661,4.7661,0,4.6464,4.6622,4.6641,4.6757,4.6818,4.6801,4.6926,4.6984,4.7102,4.7144,4.7105,4.7323,4.7382,4.7557,4.7605,4.765,4.7684,4.7633,4.7843,4.7863,4.7881,4.7945,4.7971,4.7666,4.7665,4.7665,4.7664,0,4.6705,4.6815,4.6905,4.7017,4.7089,4.7209,4.7245,4.7314,4.7317,4.735,4.7498,4.7567,4.7677,4.7719,4.7724,4.7895,4.7871,4.7838,4.7768,4.7911,4.7972,4.7998,4.7673,4.7671,4.767,4.7669,0,0,4.6922,4.7041,4.7074,4.7123,4.7221,4.7306,4.7425,4.7532,4.759,4.7672,4.777,4.7918,4.7887,4.7949,4.796,4.8039,4.8187,4.7995,4.7998,4.8027,4.8377,4.84,4.8429,4.8176,4.8181,4.8185,4.8369,0,4.7105,4.7313,4.7332,4.752,4.762,4.7605,4.7707,4.7778,4.7812,4.7902,4.7939,4.8043,4.7995,4.8032,4.811,4.8153,4.8257,4.814,4.8267,4.8271,4.8244,4.8461,4.8487,4.8657,4.8393,4.8398,4.8401,0,4.7347,4.7434,4.763,4.7711,4.7754,4.7846,4.7944,4.8031,4.8109,4.8128,4.8197,4.8196,4.8317,4.8242,4.8408,4.8327,4.838,4.8409,4.8416,4.8428,4.8343,4.8477,4.8712,4.8737,4.8439,4.8436,4.8433,0,4.7482,4.7648,4.7787,4.783,4.7929,4.7993,4.8037,4.8111,4.8173,4.8259,4.8299,4.8398,4.8452,4.8528,4.8554,4.8498,4.8717,4.8646,4.8735,4.8734,4.8781,4.8777,4.9026,4.8819,4.8818,4.8818,4.8817,0,4.7684,4.7804,4.7848,4.7933,4.8067,4.8087,4.8219,4.826,4.8325,4.8417,4.841,4.8496,4.8526,4.8616,4.8637,4.8769,4.8795,4.8812,4.8816,4.8812,4.8809,4.8846,4.8834,4.8824,4.8823,4.8822,4.882,0,4.7857,4.7892,4.8041,4.8121,4.8144,4.8239,4.8307,4.8388,4.842,4.8536,4.8565,4.8615,4.8721,4.8754,4.8883,4.8897,4.9051,4.9045,4.9024,4.9024,4.911,4.91,4.9389,4.9427,4.9197,4.9199,4.9201,0,4.7983,4.8075,4.8164,4.8224,4.827,4.8369,4.8431,4.8454,4.852,4.8615,4.8684,4.8789,4.8874,4.9044,4.9092,4.919,4.9185,4.9279,4.92,4.9191,4.9183,4.9177,4.9185,4.9294,4.9296,4.9298,4.93,0,4.8201,4.8213,4.8303,4.84,4.8474,4.8551,4.8626,4.8675,4.8709,4.8783,4.8891,4.8956,4.9086,4.919,4.9289,4.9333,4.9322,4.9325,4.935,4.9346,4.9328,4.9336,4.9062,4.9318,4.9316,4.9315,4.9314,4.9313,4.8353,4.8433,4.8507,4.8607,4.8665,4.8734,4.8813,4.8854,4.8944,4.9051,4.906,4.9176,4.925,4.9381,4.943,4.9521,4.9494,4.9531,4.954,4.9548,4.9554,4.9315,4.9539,4.9539,4.9539,4.9538,4.9538,0,4.8569,4.8615,4.8707,4.881,4.8889,4.8871,4.8951,4.9017,4.9119,4.9189,4.9272,4.9395,4.9495,4.9549,4.9649,4.971,4.9707,4.9735,4.973,4.974,4.9574,4.9541,4.9736,4.9736,4.9736,4.9736,4.9736,4.9736,4.869,4.8823,4.8844,4.9004,4.905,4.9163,4.921,4.9273,4.9328,4.9465,4.9547,4.9582,4.9645,4.9749,4.9839,4.9852,4.9888,4.9918,4.9929,4.9772,4.9752,4.9733,4.9701,4.9927,4.9927,5.0086,5.0088,5.0089]},{"header":{"parameterUnit":"m.s-1","parameterCategory":1,"la1":30.2991,"la2":30.254,"lo1":-89.0895,"lo2":-89.0444,"dy":0.0017,"dx":0.0017,"nx":28,"ny":28,"refTime":"2024-08-17T21:00:00:Z","depth":0,"parameterNumber":3,"parameterNumberName":"V-component_of_WINDS"},"data":[0,0,0,0,0,0,0,0,0,0,0,0,0,0,0,0,0,0,0,0,0,0,0,0,0,0,0,0,0,0,0,0,0,0,0,0,0,0,0,0,0,0,0,0,0,0,0,0,0,0,0,0,0,0,0,0,0,0,1.0519,1.0519,0,1.0506,1.0505,1.0505,1.0479,1.0478,1.0478,1.0477,1.0464,1.0464,1.0464,0,0,0,0,0,0,0,0,0,0,0,0,0,1.052,1.052,1.0519,1.0519,1.0518,1.0506,1.0505,1.0505,1.0479,1.0478,1.0477,1.0477,1.0464,1.0464,1.0464,0,0,0,0,0,0,0,0,0,0,0,0,0,1.0514,1.052,1.0519,1.0504,1.0502,1.0506,1.0505,1.0505,1.0479,1.0478,1.0477,1.0477,1.0464,1.0464,1.0464,1.0481,0,0,1.0465,1.0465,0,0,0,0,0,0,0,0,1.0515,1.0514,1.0506,1.0505,1.0503,1.0493,1.0501,1.0497,1.0479,1.0488,1.0477,1.0476,1.0474,1.0473,1.0473,1.0481,1.048,1.0465,1.0465,1.0465,1.0465,0,0,0,0,0,0,0,1.0515,1.0515,1.0514,1.0506,1.0504,1.0497,1.0495,1.05,1.0486,1.0487,1.0485,1.0484,1.0473,1.0473,1.0472,1.048,1.0465,1.0465,1.0465,1.0465,1.0499,1.05,0,0,0,0,0,0,1.0518,1.0515,1.0514,1.0513,1.0507,1.0498,1.0496,1.0497,1.0485,1.0483,1.0484,1.0483,1.0473,1.0472,1.0472,1.049,1.0465,1.0465,1.0465,1.0498,1.0499,1.05,0,0,0,0,0,0,1.0518,1.0518,1.0514,1.0514,1.0513,1.0499,1.05,1.0497,1.0497,1.0484,1.0481,1.0487,1.0472,1.0471,1.0479,1.0489,1.0465,1.0466,1.0497,1.0499,1.05,1.0527,0,0,0,0,0,0,1.0518,1.0518,1.0525,1.0514,1.0513,1.0522,1.0501,1.0497,1.0497,1.0494,1.0485,1.0483,1.0471,1.0478,1.0479,1.0489,1.0466,1.0496,1.0498,1.0499,1.0525,1.0529,1.0533,0,0,0,0,0,1.0518,1.0534,1.0525,1.0525,1.0521,1.0523,1.0522,1.0509,1.0498,1.0504,1.0496,1.0483,1.0488,1.0479,1.048,1.049,1.0496,1.0498,1.0499,1.0524,1.0528,1.0532,0,0,0,0,0,0,1.0547,1.0532,1.0523,1.0535,1.0531,1.0518,1.0526,1.0515,1.0513,1.0511,1.0494,1.0492,1.0501,1.0496,1.0487,1.0505,1.049,1.0491,1.0508,1.0512,1.0516,1.0517,1.0466,0,0,0,0,0,1.0555,1.0558,1.0544,1.0557,1.0555,1.0541,1.0541,1.0531,1.0526,1.0524,1.0515,1.051,1.051,1.0511,1.0511,1.0524,1.0521,1.0531,1.0535,1.0538,1.054,1.0545,1.0549,1.0506,1.0506,1.0506,0,0,1.0571,1.0563,1.0566,1.0562,1.0557,1.056,1.0539,1.0544,1.0545,1.0524,1.053,1.0524,1.0517,1.0527,1.0531,1.0523,1.055,1.054,1.0542,1.0543,1.0547,1.0551,1.0555,1.0507,1.0507,1.0507,0,0,1.0602,1.0597,1.0606,1.0601,1.0593,1.0584,1.0586,1.0575,1.057,1.0575,1.0559,1.056,1.0562,1.0557,1.0555,1.0581,1.0569,1.0581,1.06,1.0606,1.0609,1.0612,1.062,1.0624,1.0583,1.0583,1.0583,0,1.0624,1.0627,1.0612,1.0617,1.0615,1.0595,1.0603,1.0599,1.0592,1.0591,1.0582,1.0581,1.0576,1.0583,1.059,1.0589,1.059,1.0583,1.061,1.0612,1.0615,1.0623,1.0626,1.0585,1.0585,1.0585,1.0584,0,1.0653,1.0656,1.0664,1.0657,1.0656,1.0663,1.0647,1.0648,1.0637,1.0629,1.0634,1.0625,1.0622,1.0623,1.0614,1.0629,1.0624,1.0613,1.0597,1.0621,1.0628,1.0631,1.0587,1.0587,1.0586,1.0586,0,0,1.0704,1.0686,1.069,1.0685,1.0674,1.0676,1.0681,1.0677,1.0678,1.0673,1.0676,1.0676,1.0665,1.0662,1.0651,1.0656,1.0676,1.0643,1.0643,1.0649,1.0692,1.07,1.0704,1.0668,1.0668,1.0669,1.0692,0,1.0732,1.074,1.0725,1.0736,1.0738,1.0718,1.0722,1.0715,1.0706,1.0706,1.0696,1.0696,1.0682,1.068,1.0683,1.0673,1.0684,1.0671,1.067,1.067,1.0672,1.0708,1.0718,1.074,1.0695,1.0695,1.0696,0,1.0767,1.0763,1.0774,1.0761,1.0761,1.0765,1.0759,1.0759,1.0751,1.0744,1.074,1.0726,1.0729,1.0714,1.0717,1.0708,1.0706,1.0701,1.0702,1.0701,1.0684,1.0708,1.0747,1.075,1.07,1.07,1.0699,0,1.0802,1.0799,1.0805,1.0802,1.0787,1.079,1.0784,1.0774,1.0772,1.0767,1.0765,1.0761,1.0758,1.0755,1.074,1.073,1.0745,1.0728,1.0739,1.0739,1.0743,1.0743,1.0782,1.0742,1.0742,1.0742,1.0742,0,1.0835,1.0843,1.082,1.0824,1.0831,1.0813,1.0821,1.0812,1.0803,1.0804,1.0787,1.0788,1.0768,1.0767,1.0756,1.0759,1.0759,1.0753,1.0749,1.0754,1.0755,1.0753,1.0751,1.0743,1.0743,1.0743,1.0742,0,1.0876,1.0861,1.0866,1.085,1.0847,1.0853,1.0839,1.0841,1.083,1.0832,1.0831,1.0814,1.0812,1.0796,1.0791,1.0783,1.079,1.0784,1.0793,1.0791,1.0802,1.0801,1.0841,1.0845,1.0803,1.0804,1.0804,0,1.0898,1.0903,1.0888,1.0887,1.0881,1.088,1.0878,1.086,1.0858,1.0847,1.0851,1.0846,1.0842,1.0839,1.0826,1.0821,1.0814,1.0828,1.0813,1.0817,1.0813,1.0813,1.0813,1.0832,1.0832,1.0833,1.0833,0,1.0939,1.0931,1.0928,1.0922,1.092,1.0914,1.0908,1.0908,1.0888,1.0886,1.0883,1.088,1.0873,1.0869,1.0861,1.0854,1.084,1.0838,1.084,1.0845,1.0849,1.0846,1.0802,1.0837,1.0837,1.0836,1.0836,1.0836,1.0971,1.0974,1.0963,1.096,1.0952,1.0946,1.0947,1.0936,1.0933,1.0925,1.0915,1.0913,1.0902,1.089,1.0884,1.0881,1.0874,1.0877,1.0878,1.0879,1.088,1.085,1.088,1.088,1.088,1.088,1.088,0,1.101,1.1002,1.0999,1.099,1.0987,1.0973,1.0965,1.0963,1.0961,1.0952,1.0948,1.0943,1.0939,1.0924,1.0918,1.0919,1.0912,1.0917,1.0917,1.0915,1.0888,1.0887,1.0923,1.0923,1.0923,1.0923,1.0923,1.0923,1.103,1.1034,1.1024,1.1023,1.1015,1.1012,1.1008,1.1002,1.0994,1.099,1.0986,1.0976,1.0965,1.0957,1.0951,1.0947,1.0946,1.0953,1.0947,1.0922,1.0918,1.0914,1.0912,1.0953,1.0953,1.0974,1.0974,1.0974]}]]